AAY2002 KPIE-KCVG

Flight info

Callsign AAY2002
Flight time 1h 42m
Altitude 34000
Route ENDED2 LACEN BRUTS Q118 THRSR VXV JAKIE7
Aircraft A320/M-VGDW/C

Departure

Time 2026-04-25 01:02
Airport St. Petersburg Clearwater International Airport (KPIE)

Arrival

Time 2026-04-25 02:44
Airport Cincinnati Northern Kentucky International Airport (KCVG)
Time Latitude Longitude Altitude Speed Heading
2026-04-25 00:33 27.90740 -82.69295 25 ft 0 kts 178°
2026-04-25 00:50 27.90748 -82.69295 24 ft 2 kts 178°
2026-04-25 00:50 27.90765 -82.69296 27 ft 2 kts 178°
2026-04-25 00:50 27.90782 -82.69296 26 ft 2 kts 178°
2026-04-25 00:50 27.90799 -82.69300 25 ft 3 kts 145°
2026-04-25 00:51 27.90812 -82.69314 25 ft 2 kts 117°
2026-04-25 00:51 27.90819 -82.69331 27 ft 2 kts 117°
2026-04-25 00:51 27.90820 -82.69332 26 ft 0 kts 114°
2026-04-25 00:53 27.90819 -82.69327 24 ft 4 kts 101°
2026-04-25 00:54 27.90827 -82.69275 24 ft 7 kts 80°
2026-04-25 00:54 27.90834 -82.69224 24 ft 6 kts 86°
2026-04-25 00:54 27.90836 -82.69179 24 ft 5 kts 88°
2026-04-25 00:54 27.90837 -82.69136 24 ft 6 kts 88°
2026-04-25 00:55 27.90839 -82.69066 24 ft 12 kts 88°
2026-04-25 00:55 27.90818 -82.68966 25 ft 13 kts 150°
2026-04-25 00:55 27.90732 -82.68946 25 ft 12 kts 170°
2026-04-25 00:55 27.90654 -82.68932 26 ft 11 kts 171°
2026-04-25 00:56 27.90575 -82.68918 24 ft 14 kts 171°
2026-04-25 00:56 27.90475 -82.68902 26 ft 14 kts 172°
2026-04-25 00:56 27.90384 -82.68887 24 ft 13 kts 171°
2026-04-25 00:56 27.90301 -82.68873 24 ft 11 kts 171°
2026-04-25 00:57 27.90226 -82.68860 24 ft 10 kts 171°
2026-04-25 00:57 27.90156 -82.68853 23 ft 10 kts 179°
2026-04-25 00:57 27.90084 -82.68852 21 ft 11 kts 179°
2026-04-25 00:57 27.90012 -82.68859 21 ft 10 kts 184°
2026-04-25 00:58 27.89950 -82.68862 22 ft 7 kts 182°
2026-04-25 00:58 27.89908 -82.68862 23 ft 6 kts 174°
2026-04-25 00:58 27.89811 -82.68850 24 ft 21 kts 170°
2026-04-25 00:58 27.89744 -82.68833 24 ft 6 kts 167°
2026-04-25 00:59 27.89706 -82.68823 24 ft 5 kts 165°
2026-04-25 00:59 27.89692 -82.68769 26 ft 14 kts 94°
2026-04-25 00:59 27.89698 -82.68720 22 ft 0 kts 81°
2026-04-25 01:00 27.89700 -82.68705 22 ft 7 kts 81°
2026-04-25 01:00 27.89731 -82.68631 20 ft 12 kts 14°
2026-04-25 01:01 27.89822 -82.68630 19 ft 14 kts 350°
2026-04-25 01:01 27.89953 -82.68654 20 ft 38 kts 352°
2026-04-25 01:01 27.90468 -82.68746 24 ft 108 kts 351°
2026-04-25 01:01 27.91404 -82.68905 28 ft 161 kts 351°
2026-04-25 01:02 27.92545 -82.69091 609 ft 168 kts 351°
2026-04-25 01:02 27.93691 -82.69296 1476 ft 166 kts 353°
2026-04-25 01:02 27.94878 -82.69185 1907 ft 187 kts 15°
2026-04-25 01:02 27.96268 -82.68641 1813 ft 236 kts 19°
2026-04-25 01:03 27.97888 -82.67956 1715 ft 255 kts 20°
2026-04-25 01:03 27.99559 -82.67245 1653 ft 259 kts 16°
2026-04-25 01:03 28.01370 -82.67035 2307 ft 264 kts 352°
2026-04-25 01:03 28.03174 -82.67457 3333 ft 267 kts 347°
2026-04-25 01:04 28.05000 -82.67957 4326 ft 273 kts 346°
2026-04-25 01:04 28.06860 -82.68489 5309 ft 278 kts 346°
2026-04-25 01:04 28.08742 -82.69035 6295 ft 281 kts 346°
2026-04-25 01:04 28.10644 -82.69591 7265 ft 283 kts 346°
2026-04-25 01:05 28.12554 -82.70148 8247 ft 283 kts 346°
2026-04-25 01:05 28.14465 -82.70707 9252 ft 284 kts 345°
2026-04-25 01:05 28.16385 -82.71267 10174 ft 287 kts 345°
2026-04-25 01:05 28.18387 -82.71849 10564 ft 309 kts 345°
2026-04-25 01:06 28.20547 -82.72479 10828 ft 332 kts 345°
2026-04-25 01:06 28.22834 -82.73147 11313 ft 345 kts 345°
2026-04-25 01:06 28.25174 -82.73831 12044 ft 350 kts 344°
2026-04-25 01:06 28.27543 -82.74524 12822 ft 353 kts 344°
2026-04-25 01:07 28.29937 -82.75224 13581 ft 357 kts 343°
2026-04-25 01:07 28.32352 -82.75929 14259 ft 360 kts 343°
2026-04-25 01:07 28.34788 -82.76641 14950 ft 363 kts 343°
2026-04-25 01:07 28.37239 -82.77358 15625 ft 365 kts 343°
2026-04-25 01:08 28.39707 -82.78079 16291 ft 368 kts 343°
2026-04-25 01:08 28.42224 -82.78662 16968 ft 372 kts 349°
2026-04-25 01:08 28.44795 -82.79080 17649 ft 374 kts 349°
2026-04-25 01:08 28.47381 -82.79499 18312 ft 377 kts 349°
2026-04-25 01:09 28.49985 -82.79922 18881 ft 380 kts 349°
2026-04-25 01:09 28.52575 -82.80342 19437 ft 382 kts 349°
2026-04-25 01:09 28.55218 -82.80775 20005 ft 385 kts 349°
2026-04-25 01:09 28.57885 -82.81214 20562 ft 389 kts 349°
2026-04-25 01:10 28.60569 -82.81672 21107 ft 392 kts 348°
2026-04-25 01:10 28.63269 -82.82152 21640 ft 395 kts 348°
2026-04-25 01:10 28.65991 -82.82648 22162 ft 398 kts 348°
2026-04-25 01:10 28.68736 -82.83153 22666 ft 401 kts 348°
2026-04-25 01:11 28.71500 -82.83661 23152 ft 404 kts 348°
2026-04-25 01:11 28.74284 -82.84169 23609 ft 407 kts 348°
2026-04-25 01:11 28.77092 -82.84679 24013 ft 410 kts 348°
2026-04-25 01:11 28.79913 -82.85187 24406 ft 412 kts 348°
2026-04-25 01:12 28.82752 -82.85699 24788 ft 414 kts 348°
2026-04-25 01:12 28.85609 -82.86217 25168 ft 416 kts 348°
2026-04-25 01:12 28.88480 -82.86739 25540 ft 418 kts 348°
2026-04-25 01:12 28.91367 -82.87264 25908 ft 421 kts 348°
2026-04-25 01:13 28.94265 -82.87787 26277 ft 423 kts 348°
2026-04-25 01:13 28.97177 -82.88314 26631 ft 425 kts 348°
2026-04-25 01:13 29.00112 -82.88849 26979 ft 427 kts 348°
2026-04-25 01:13 29.03052 -82.89388 27320 ft 429 kts 348°
2026-04-25 01:14 29.06009 -82.89929 27654 ft 431 kts 348°
2026-04-25 01:14 29.08981 -82.90471 27974 ft 434 kts 348°
2026-04-25 01:14 29.11968 -82.91013 28279 ft 436 kts 348°
2026-04-25 01:14 29.14971 -82.91556 28598 ft 438 kts 348°
2026-04-25 01:15 29.17984 -82.92100 28893 ft 439 kts 348°
2026-04-25 01:15 29.21008 -82.92649 29183 ft 441 kts 348°
2026-04-25 01:15 29.24042 -82.93204 29457 ft 443 kts 348°
2026-04-25 01:15 29.27093 -82.93764 29721 ft 445 kts 348°
2026-04-25 01:16 29.30154 -82.94326 29972 ft 446 kts 348°
2026-04-25 01:16 29.33220 -82.94890 30257 ft 446 kts 348°
2026-04-25 01:16 29.36281 -82.95450 30559 ft 445 kts 348°
2026-04-25 01:16 29.39334 -82.96004 30854 ft 444 kts 348°
2026-04-25 01:17 29.42386 -82.96555 31140 ft 444 kts 348°
2026-04-25 01:17 29.44404 -82.96921 31341 ft 443 kts 348°
2026-04-25 01:17 29.48476 -82.97667 31745 ft 442 kts 348°
2026-04-25 01:17 29.51486 -82.98357 32036 ft 439 kts 341°
2026-04-25 01:18 29.54345 -82.99540 32329 ft 436 kts 335°
2026-04-25 01:18 29.57147 -83.00884 32619 ft 436 kts 335°
2026-04-25 01:18 29.59946 -83.02222 32923 ft 435 kts 335°
2026-04-25 01:18 29.62706 -83.03538 33215 ft 435 kts 335°
2026-04-25 01:19 29.65506 -83.04867 33507 ft 435 kts 335°
2026-04-25 01:19 29.68299 -83.06195 33804 ft 434 kts 335°
2026-04-25 01:19 29.71094 -83.07522 33947 ft 434 kts 335°
2026-04-25 01:20 29.76663 -83.10176 33970 ft 433 kts 335°
2026-04-25 01:20 29.82219 -83.12838 33975 ft 432 kts 335°
2026-04-25 01:21 29.87776 -83.15495 33973 ft 432 kts 335°
2026-04-25 01:21 29.93335 -83.18165 33979 ft 433 kts 335°
2026-04-25 01:22 29.98886 -83.20842 33965 ft 432 kts 335°
2026-04-25 01:22 30.03501 -83.23059 33973 ft 432 kts 335°
2026-04-25 01:23 30.09058 -83.25725 33971 ft 432 kts 335°
2026-04-25 01:23 30.14610 -83.28396 33970 ft 433 kts 335°
2026-04-25 01:24 30.20165 -83.31076 33967 ft 433 kts 335°
2026-04-25 01:24 30.25723 -83.33755 33962 ft 433 kts 335°
2026-04-25 01:25 30.31283 -83.36446 33954 ft 433 kts 335°
2026-04-25 01:25 30.36843 -83.39142 33946 ft 433 kts 335°
2026-04-25 01:26 30.42407 -83.41831 33947 ft 434 kts 335°
2026-04-25 01:26 30.47978 -83.44532 33946 ft 434 kts 335°
2026-04-25 01:27 30.53555 -83.47236 33948 ft 435 kts 335°
2026-04-25 01:27 30.59103 -83.49932 33946 ft 435 kts 335°
2026-04-25 01:28 30.67493 -83.54014 33948 ft 436 kts 335°
2026-04-25 01:28 30.73083 -83.56745 33945 ft 436 kts 335°
2026-04-25 01:29 30.78681 -83.59482 33945 ft 436 kts 335°
2026-04-25 01:29 30.84285 -83.62219 33942 ft 437 kts 336°
2026-04-25 01:30 30.89892 -83.64953 33946 ft 437 kts 335°
2026-04-25 01:30 30.95503 -83.67702 33943 ft 437 kts 335°
2026-04-25 01:31 31.01113 -83.70460 33941 ft 438 kts 335°
2026-04-25 01:31 31.06722 -83.73222 33946 ft 438 kts 335°
2026-04-25 01:32 31.12343 -83.75984 33947 ft 438 kts 336°
2026-04-25 01:32 31.17966 -83.78751 33946 ft 438 kts 336°
2026-04-25 01:33 31.23558 -83.81506 33942 ft 439 kts 336°
2026-04-25 01:33 31.29181 -83.84288 33936 ft 439 kts 336°
2026-04-25 01:34 31.34808 -83.87074 33925 ft 440 kts 336°
2026-04-25 01:34 31.40453 -83.89862 33924 ft 440 kts 336°
2026-04-25 01:35 31.46096 -83.92657 33924 ft 441 kts 336°
2026-04-25 01:35 31.51768 -83.95398 33924 ft 442 kts 341°
2026-04-25 01:36 31.57787 -83.96951 33926 ft 444 kts 348°
2026-04-25 01:36 31.63861 -83.98291 33922 ft 444 kts 348°
2026-04-25 01:37 31.69940 -83.99646 33926 ft 445 kts 348°
2026-04-25 01:37 31.76024 -84.01011 33924 ft 445 kts 348°
2026-04-25 01:38 31.82112 -84.02364 33923 ft 445 kts 348°
2026-04-25 01:38 31.88204 -84.03714 33926 ft 446 kts 348°
2026-04-25 01:39 31.94297 -84.05080 33908 ft 446 kts 348°
2026-04-25 01:39 32.00396 -84.06449 33910 ft 446 kts 348°
2026-04-25 01:40 32.06501 -84.07816 33909 ft 446 kts 348°
2026-04-25 01:40 32.12606 -84.09182 33912 ft 447 kts 348°
2026-04-25 01:41 32.18711 -84.10555 33915 ft 447 kts 349°
2026-04-25 01:41 32.24817 -84.11926 33910 ft 446 kts 349°
2026-04-25 01:42 32.30918 -84.13303 33917 ft 447 kts 349°
2026-04-25 01:42 32.37018 -84.14681 33913 ft 446 kts 349°
2026-04-25 01:43 32.43125 -84.16058 33910 ft 446 kts 349°
2026-04-25 01:43 32.49228 -84.17435 33915 ft 446 kts 349°
2026-04-25 01:44 32.55331 -84.18812 33915 ft 446 kts 349°
2026-04-25 01:44 32.61433 -84.20200 33916 ft 447 kts 349°
2026-04-25 01:45 32.67497 -84.21575 33931 ft 447 kts 349°
2026-04-25 01:45 32.73599 -84.22972 33944 ft 447 kts 349°
2026-04-25 01:46 32.79706 -84.24367 33958 ft 447 kts 349°
2026-04-25 01:46 32.85813 -84.25749 33968 ft 447 kts 349°
2026-04-25 01:47 32.91923 -84.27138 33966 ft 447 kts 349°
2026-04-25 01:47 32.98028 -84.28541 33966 ft 447 kts 349°
2026-04-25 01:48 33.04138 -84.29942 33964 ft 447 kts 349°
2026-04-25 01:48 33.10203 -84.31334 33956 ft 447 kts 349°
2026-04-25 01:49 33.16322 -84.32740 33944 ft 448 kts 349°
2026-04-25 01:49 33.22437 -84.34150 33965 ft 448 kts 349°
2026-04-25 01:50 33.28556 -84.35561 33975 ft 448 kts 349°
2026-04-25 01:50 33.34678 -84.36975 33976 ft 448 kts 349°
2026-04-25 01:51 33.40815 -84.38390 33978 ft 449 kts 349°
2026-04-25 01:51 33.46907 -84.39790 33977 ft 449 kts 349°
2026-04-25 01:52 33.53042 -84.41204 33930 ft 449 kts 349°
2026-04-25 01:52 33.59181 -84.42634 33932 ft 449 kts 350°
2026-04-25 01:53 33.65403 -84.42902 33932 ft 449 kts
2026-04-25 01:53 33.71549 -84.41527 33933 ft 449 kts 11°
2026-04-25 01:54 33.77645 -84.40112 33924 ft 449 kts 11°
2026-04-25 01:54 33.83790 -84.38682 33933 ft 449 kts 11°
2026-04-25 01:55 33.89933 -84.37252 33937 ft 450 kts 11°
2026-04-25 01:55 33.96082 -84.35830 33939 ft 450 kts 11°
2026-04-25 01:56 34.02229 -84.34397 33934 ft 450 kts 11°
2026-04-25 01:56 34.08344 -84.32971 33928 ft 450 kts 11°
2026-04-25 01:57 34.17579 -84.30819 33953 ft 450 kts 11°
2026-04-25 01:58 34.23728 -84.29374 33960 ft 450 kts 11°
2026-04-25 01:58 34.29877 -84.27933 33963 ft 450 kts 11°
2026-04-25 01:59 34.36026 -84.26490 33958 ft 450 kts 11°
2026-04-25 01:59 34.42137 -84.25051 33952 ft 450 kts 11°
2026-04-25 02:00 34.48283 -84.23591 33945 ft 450 kts 11°
2026-04-25 02:00 34.54429 -84.22140 33938 ft 450 kts 11°
2026-04-25 02:01 34.60572 -84.20699 33939 ft 450 kts 11°
2026-04-25 02:01 34.66722 -84.19248 33953 ft 450 kts 11°
2026-04-25 02:02 34.72868 -84.17791 33961 ft 450 kts 11°
2026-04-25 02:02 34.79012 -84.16325 33974 ft 450 kts 11°
2026-04-25 02:03 34.85157 -84.14862 33980 ft 450 kts 11°
2026-04-25 02:03 34.91297 -84.13408 33982 ft 450 kts 11°
2026-04-25 02:04 34.97439 -84.11943 33974 ft 449 kts 11°
2026-04-25 02:04 35.03571 -84.10478 33975 ft 449 kts 11°
2026-04-25 02:05 35.09709 -84.09011 33983 ft 449 kts 11°
2026-04-25 02:05 35.15843 -84.07543 33993 ft 449 kts 11°
2026-04-25 02:06 35.21963 -84.06074 33992 ft 448 kts 10°
2026-04-25 02:06 35.28081 -84.04603 33994 ft 448 kts 10°
2026-04-25 02:07 35.34188 -84.03127 33984 ft 447 kts 10°
2026-04-25 02:07 35.40260 -84.01670 33967 ft 447 kts 10°
2026-04-25 02:08 35.46372 -84.00195 33949 ft 448 kts 11°
2026-04-25 02:08 35.52485 -83.98710 33931 ft 448 kts 11°
2026-04-25 02:09 35.58610 -83.97233 33926 ft 448 kts 10°
2026-04-25 02:09 35.64704 -83.95760 33928 ft 449 kts 11°
2026-04-25 02:10 35.70829 -83.94266 33929 ft 449 kts 11°
2026-04-25 02:10 35.76959 -83.92765 33935 ft 449 kts 11°
2026-04-25 02:11 35.83096 -83.91278 33931 ft 450 kts 10°
2026-04-25 02:11 35.89241 -83.89789 33934 ft 450 kts 11°
2026-04-25 02:12 35.95426 -83.88463 33934 ft 450 kts
2026-04-25 02:12 36.00588 -83.87610 33940 ft 450 kts
2026-04-25 02:13 36.06806 -83.86644 33937 ft 451 kts
2026-04-25 02:13 36.13023 -83.85603 33930 ft 451 kts
2026-04-25 02:14 36.19239 -83.84509 33912 ft 451 kts
2026-04-25 02:14 36.25456 -83.83417 33907 ft 451 kts
2026-04-25 02:15 36.31683 -83.82326 33907 ft 452 kts
2026-04-25 02:15 36.37908 -83.81233 33905 ft 452 kts
2026-04-25 02:16 36.44138 -83.80147 33903 ft 452 kts
2026-04-25 02:16 36.50326 -83.79060 33904 ft 452 kts
2026-04-25 02:17 36.56562 -83.77966 33901 ft 452 kts
2026-04-25 02:17 36.62794 -83.76874 33901 ft 452 kts
2026-04-25 02:18 36.69030 -83.75778 33901 ft 453 kts
2026-04-25 02:18 36.75272 -83.74669 33899 ft 453 kts
2026-04-25 02:19 36.81514 -83.73560 33897 ft 453 kts
2026-04-25 02:19 36.87767 -83.72454 33893 ft 454 kts
2026-04-25 02:20 36.94026 -83.71355 33894 ft 455 kts
2026-04-25 02:20 37.00301 -83.70246 33895 ft 455 kts
2026-04-25 02:21 37.06568 -83.69122 33892 ft 456 kts
2026-04-25 02:21 37.12849 -83.67995 33885 ft 456 kts
2026-04-25 02:22 37.19141 -83.66869 33882 ft 457 kts
2026-04-25 02:22 37.25437 -83.65745 33877 ft 457 kts
2026-04-25 02:23 37.31748 -83.64917 33888 ft 455 kts 357°
2026-04-25 02:23 37.37952 -83.66180 33883 ft 451 kts 342°
2026-04-25 02:24 37.43980 -83.68360 33879 ft 451 kts 342°
2026-04-25 02:24 37.46996 -83.69447 33695 ft 451 kts 342°
2026-04-25 02:24 37.50012 -83.70532 33429 ft 451 kts 342°
2026-04-25 02:24 37.53028 -83.71616 33162 ft 451 kts 342°
2026-04-25 02:25 37.56049 -83.72706 32898 ft 451 kts 342°
2026-04-25 02:25 37.59071 -83.73801 32634 ft 452 kts 341°
2026-04-25 02:25 37.62094 -83.74898 32374 ft 453 kts 341°
2026-04-25 02:25 37.65124 -83.75999 32122 ft 453 kts 341°
2026-04-25 02:26 37.68156 -83.77099 31864 ft 454 kts 341°
2026-04-25 02:26 37.71192 -83.78202 31612 ft 455 kts 341°
2026-04-25 02:26 37.74235 -83.79312 31102 ft 455 kts 341°
2026-04-25 02:26 37.77300 -83.80431 29934 ft 461 kts 341°
2026-04-25 02:27 37.80370 -83.81553 28622 ft 455 kts 341°
2026-04-25 02:27 37.83363 -83.82642 27903 ft 441 kts 341°
2026-04-25 02:27 37.86299 -83.83711 27175 ft 438 kts 341°
2026-04-25 02:27 37.89217 -83.84778 26465 ft 435 kts 341°
2026-04-25 02:28 37.92116 -83.85838 25757 ft 433 kts 341°
2026-04-25 02:28 37.95006 -83.86895 25062 ft 431 kts 341°
2026-04-25 02:28 37.97879 -83.87947 24371 ft 429 kts 341°
2026-04-25 02:28 38.00703 -83.88983 23697 ft 427 kts 341°
2026-04-25 02:29 38.03555 -83.90026 22934 ft 426 kts 341°
2026-04-25 02:29 38.06423 -83.91074 22292 ft 421 kts 341°
2026-04-25 02:29 38.09192 -83.92087 21674 ft 418 kts 341°
2026-04-25 02:29 38.11965 -83.93156 21091 ft 413 kts 338°
2026-04-25 02:30 38.14554 -83.94678 20513 ft 409 kts 328°
2026-04-25 02:30 38.17022 -83.96464 19954 ft 407 kts 328°
2026-04-25 02:30 38.19480 -83.98235 19398 ft 405 kts 328°
2026-04-25 02:30 38.21934 -83.99996 18833 ft 403 kts 328°
2026-04-25 02:31 38.24375 -84.01746 18271 ft 401 kts 328°
2026-04-25 02:31 38.26806 -84.03492 17736 ft 399 kts 328°
2026-04-25 02:31 38.29217 -84.05225 17209 ft 397 kts 328°
2026-04-25 02:31 38.31610 -84.06948 16653 ft 394 kts 328°
2026-04-25 02:32 38.33991 -84.08662 16112 ft 391 kts 328°
2026-04-25 02:32 38.36357 -84.10364 15571 ft 389 kts 328°
2026-04-25 02:32 38.38705 -84.12056 15037 ft 386 kts 328°
2026-04-25 02:32 38.41035 -84.13736 14509 ft 383 kts 327°
2026-04-25 02:33 38.43346 -84.15407 13980 ft 381 kts 327°
2026-04-25 02:33 38.45609 -84.17048 13455 ft 378 kts 327°
2026-04-25 02:33 38.47890 -84.18700 12913 ft 375 kts 327°
2026-04-25 02:33 38.50159 -84.20340 12399 ft 373 kts 327°
2026-04-25 02:34 38.52407 -84.21968 11889 ft 370 kts 327°
2026-04-25 02:34 38.54638 -84.23589 11385 ft 368 kts 327°
2026-04-25 02:34 38.56855 -84.25201 10871 ft 365 kts 327°
2026-04-25 02:34 38.59037 -84.26783 10578 ft 350 kts 327°
2026-04-25 02:35 38.61061 -84.28247 10443 ft 320 kts 325°
2026-04-25 02:35 38.62759 -84.29913 10056 ft 300 kts 309°
2026-04-25 02:35 38.63967 -84.32014 9843 ft 288 kts 293°
2026-04-25 02:35 38.64695 -84.34360 9727 ft 281 kts 279°
2026-04-25 02:36 38.64949 -84.36805 9600 ft 275 kts 266°
2026-04-25 02:36 38.64954 -84.39249 9467 ft 275 kts 266°
2026-04-25 02:36 38.64962 -84.41687 9339 ft 274 kts 266°
2026-04-25 02:36 38.64973 -84.44116 9080 ft 273 kts 266°
2026-04-25 02:37 38.64985 -84.46542 8758 ft 273 kts 266°
2026-04-25 02:37 38.65005 -84.48953 8425 ft 271 kts 269°
2026-04-25 02:37 38.65437 -84.51312 8092 ft 277 kts 290°
2026-04-25 02:37 38.66547 -84.53348 7759 ft 285 kts 311°
2026-04-25 02:38 38.68218 -84.54744 7407 ft 292 kts 332°
2026-04-25 02:38 38.70089 -84.55751 7066 ft 291 kts 333°
2026-04-25 02:38 38.71949 -84.56745 6725 ft 290 kts 333°
2026-04-25 02:38 38.73801 -84.57737 6381 ft 287 kts 333°
2026-04-25 02:39 38.75631 -84.58719 6033 ft 282 kts 333°
2026-04-25 02:39 38.77429 -84.59684 5691 ft 277 kts 333°
2026-04-25 02:39 38.79195 -84.60633 5361 ft 273 kts 333°
2026-04-25 02:39 38.80925 -84.61564 5052 ft 267 kts 333°
2026-04-25 02:40 38.82624 -84.62484 4748 ft 263 kts 332°
2026-04-25 02:40 38.84294 -84.63391 4434 ft 257 kts 332°
2026-04-25 02:40 38.85922 -84.64274 4146 ft 252 kts 333°
2026-04-25 02:40 38.87627 -84.64776 3870 ft 253 kts 353°
2026-04-25 02:41 38.89380 -84.64785 3539 ft 248 kts 357°
2026-04-25 02:41 38.91038 -84.64739 3241 ft 236 kts 356°
2026-04-25 02:41 38.92603 -84.64721 2965 ft 212 kts 355°
2026-04-25 02:41 38.94011 -84.64714 2678 ft 194 kts 355°
2026-04-25 02:42 38.95299 -84.64708 2440 ft 178 kts 353°
2026-04-25 02:42 38.96487 -84.64703 2231 ft 163 kts 353°
2026-04-25 02:42 38.97576 -84.64698 2018 ft 151 kts 354°
2026-04-25 02:42 38.98599 -84.64695 1819 ft 145 kts 354°
2026-04-25 02:43 38.99603 -84.64692 1620 ft 143 kts 356°
2026-04-25 02:43 39.00592 -84.64688 1402 ft 142 kts 356°
2026-04-25 02:43 39.01576 -84.64685 1214 ft 141 kts 358°
2026-04-25 02:43 39.02564 -84.64680 1014 ft 143 kts 358°
2026-04-25 02:44 39.03538 -84.64678 885 ft 133 kts 360°
2026-04-25 02:44 39.04296 -84.64676 882 ft 84 kts 358°
2026-04-25 02:44 39.04716 -84.64672 884 ft 34 kts
2026-04-25 02:44 39.04942 -84.64691 883 ft 31 kts 347°
2026-04-25 02:45 39.05030 -84.64750 882 ft 8 kts 330°
2026-04-25 02:45 39.05065 -84.64776 881 ft 4 kts 330°
2026-04-25 02:45 39.05103 -84.64804 880 ft 12 kts 330°
2026-04-25 02:45 39.05180 -84.64858 879 ft 12 kts 331°
2026-04-25 02:46 39.05213 -84.64961 879 ft 14 kts 270°
2026-04-25 02:46 39.05213 -84.65075 879 ft 12 kts 270°
2026-04-25 02:46 39.05215 -84.65171 879 ft 8 kts 287°
2026-04-25 02:46 39.05245 -84.65188 879 ft 2 kts
2026-04-25 02:47 39.05253 -84.65188 879 ft 2 kts
2026-04-25 02:47 39.05267 -84.65187 879 ft 1 kts
2026-04-25 02:47 39.05288 -84.65187 879 ft 0 kts 359°